Overview Statistics Trail Chart Weather Telemetry Raw packets
 

This is the latest recevied weather packets stored in our database for station/object KA1JKB. If no packets are shown the sender has not sent any weather packets the latest 10 day(s).

<< 43 44 45 46 47 48 49 >>
Time Temp. Humidity Pressure Rain* Wind** Luminosity Snow
1788136195 21.67° C 96% 1014.1 hPa 0 mm - 0 W/m² -
1788135894 21.67° C 95% 1014 hPa 0 mm - 0 W/m² -
1788135589 21.67° C 95% 1014.1 hPa 0 mm - 0 W/m² -
1788135284 21.67° C 95% 1014.1 hPa 0 mm - 0 W/m² -
1788134981 21.67° C 95% 1014.1 hPa 0 mm - 2 W/m² -
1788134677 21.67° C 94% 1014.2 hPa 0 mm - 4 W/m² -
1788134375 21.67° C 94% 1014 hPa 0 mm - 7 W/m² -
1788134071 22.22° C 94% 1014 hPa 0 mm - 10 W/m² -
1788133766 22.22° C 94% 1014.2 hPa 0 mm - 13 W/m² -
1788133461 22.22° C 94% 1014 hPa 0 mm - 18 W/m² -
1788133157 22.22° C 95% 1014.2 hPa 0 mm - 23 W/m² -
1788132852 22.22° C 95% 1014.1 hPa 0 mm - 29 W/m² -
1788132547 22.22° C 95% 1014.3 hPa 0 mm - 34 W/m² -
1788132257 22.22° C 94% 1014.2 hPa 0 mm - 38 W/m² -
1788131940 22.78° C 93% 1014.3 hPa 0 mm - 42 W/m² -
1788131635 22.78° C 92% 1014.4 hPa 0 mm - 48 W/m² -
1788131334 22.78° C 93% 1014.9 hPa 0 mm - 56 W/m² -
1788131030 22.78° C 93% 1014.6 hPa 0 mm - 63 W/m² -
1788130729 22.78° C 92% 1014.6 hPa 0 mm - 72 W/m² -
1788130424 22.78° C 92% 1014.6 hPa 0 mm - 78 W/m² -
1788130119 22.78° C 91% 1014.6 hPa 0 mm - 80 W/m² -
1788129820 22.78° C 91% 1014.9 hPa 0 mm - 84 W/m² -
1788129516 22.78° C 90% 1015 hPa 0 mm - 92 W/m² -
1788129212 22.78° C 90% 1014.9 hPa 0 mm - 98 W/m² -
1788128911 22.78° C 90% 1014.9 hPa 0 mm - 100 W/m² -

* Rain latest hour (hover to see other rain measurements)
** Current wind speed in m/s (hover to see current wind gust speed)